Погода в Нехаевской

Россия / Волгоградская область     50°24′31″N   41°45′08″E
темп.,
°C
ветер,
м/с
пор.,
м/с
влажн.,
%
обл.,
%
осадки,
мм/ч
давл.,
гПа
погр.,
м
24 сентября, пт
пт2400:00+8ююз11705 0.0 101310
03:00+7ююз117297 0.0 101210
06:00+6юв227848 0.0 101211
09:00+11ююв3459100 0.0 1012388
12:00+13ю5652100 0.0 1011971
15:00+15ююз5744100 0.0 10092105
18:00+12ююв2461100 0.0 100976
21:00+11ююв266889 0.1 1008209
25 сентября, сб
сб2500:00+11ююз257894 0.0 1008124
03:00+9юз2269100 0.0 100813
06:00+8ююз1270100 0.0 100812
09:00+10ю2366100 0.0 1008248
12:00+10ю2282100 0.3 1009232
15:00+9юв1192100 1.9 1010118
18:00+9ссв119286 0.8 101123
21:00+9з249293 0.8 1012123
26 сентября, вс
вс2600:00+7з33935 0.0 101251
03:00+7зюз339296 0.0 101239
06:00+9зюз388797 0.0 1011212
09:00+11зюз5876100 0.1 1010486
12:00+10юз51093100 1.5 1009661
15:00+11з41090100 3.3 1007637
18:00+11зсз5108627 0.8 1007424
21:00+9сз713855 1.1 1008485
27 сентября, пн
пн2700:00+7зсз6128911 0.0 1009434
03:00+8зсз61286100 0.0 1010659
06:00+8сз5990100 0.0 1011649
09:00+9ссз698999 0.1 1012661
12:00+10ссз698699 0.1 1014675
15:00+12с5871100 0.2 1015947
18:00+10с487649 0.3 1017302
21:00+8ссз498942 0.3 1019293
28 сентября, вт
вт2800:00+8ссз3792100 0.0 1020274
03:00+9с3788100 0.1 1021284
06:00+9с3794100 0.2 1022391
09:00+9ссв4794100 0.3 1023531
12:00+9всв4677100 0.1 1025599
15:00+12св346099 0.1 10261460
18:00+10ссв2270100 0.0 102743
21:00+10ссв3569100 0.0 1028135